User: anonymous   Login
Location: Caltech
(34.1382°N, 118.1253°W)
Time: 04:37:39
(UTC-08:00)
Language:

Spot 4 Rocket - Orbit

View from above orbital plane
View from above orbital plane
View from above satellite
View from above satellite

Ground track
Ground track

The orbit data is extracted from the following two-line orbital elements,

1 25261U 98017B   16044.52068060  .00000259  00000-0  10961-3 0  9999
2 25261  98.4874 353.6026 0004472  96.9280  35.2042 14.33434607934865
Epoch (UTC): 13 February 2016 12:29:46
Eccentricity: 0.0004472
inclination: 98.4874°
perigee height: 777 km
apogee height: 783 km
right ascension of ascending node: 353.6026°
argument of perigee: 96.9280°
revolutions per day: 14.33434607
mean anomaly at epoch: 35.2042°
orbit number at epoch: 93486

The dashed part of the orbit path shows where the satellite is in the earth's shadow,  

DLR